Flag for Dominican Republic Weather past 2 weeks in Punta Cana, Dominican Republic

Now
79 °F

Thundershowers. Passing clouds.


Feels Like: 82 °F
Forecast: 78 / 87 °F
Wind: 3 mph from North

Location: Punta Cana

Current Time: Aug 1, 2014 at 1:48:27 AM

Latest Report: Aug 1, 2014 at 1:00 AM


Visibility: N/A

Pressure: 29.98 "Hg

Humidity: 89%

Dew point: 75 °F

Location of Punta CanaLocation

Historic Weather in Punta Cana — Graph

°F

Punta Cana temperature yesterday

Maximum temperature yesterday: 90 °F (at 1:00 PM)
Minimum temperature yesterday: 75 °F (at 5:00 AM)
Average temperature yesterday: 82 °F

Past Weeks' High & Low Weather Summary

 TemperatureHumidityPressure
High90 °F (Jul 24, 1:00 PM)100% (Jul 19, 4:00 AM)30.12 "Hg (Jul 19, 4:00 AM)
Low73 °F (Jul 19, 4:00 AM)59% (Jul 31, 1:00 PM)29.95 "Hg (Jul 31, 4:00 PM)
Average83 °F78%30.05 "Hg
* Reported Midnight between Jul 16 and Jul 17 — Midnight between Jul 31 and Aug 1, Punta Cana, Weather by CustomWeather, © 2014

Note: Actual official high and low records may vary slightly from our data, if they occured in-between our weather recording intervals... More about our weather records

Advertising

Punta Cana weather history for previous 24 hours

 ConditionsComfort  
Time TempWeatherWind HumidityBarometerVisibility
12:00 AM
Aug 1
81 °FThunderstorms. Passing clouds.6 mph89%30.01 "HgN/A
11:00 PM
Jul 31
81 °FPassing clouds.No wind84%30.01 "HgN/A
10:00 PM81 °FThunderstorms. Passing clouds.No wind79%30.01 "HgN/A
8:00 PM79 °FPassing clouds.5 mph84%29.98 "HgN/A
7:00 PM82 °FPassing clouds.No wind74%29.95 "HgN/A
6:00 PM86 °FPassing clouds.6 mph66%29.95 "HgN/A
5:00 PM88 °FScattered clouds.9 mph62%29.95 "HgN/A
4:00 PM88 °FPassing clouds.7 mph62%29.95 "HgN/A
3:00 PM88 °FPassing clouds.9 mph62%29.98 "HgN/A
2:00 PM88 °FPassing clouds.9 mph59%29.98 "HgN/A
1:00 PM90 °FPassing clouds.9 mph59%29.98 "HgN/A
12:00 PM88 °FPassing clouds.12 mph62%30.01 "HgN/A
11:00 AM88 °FPassing clouds.12 mph62%30.01 "HgN/A
10:00 AM86 °FPassing clouds.7 mph66%30.01 "HgN/A
9:00 AM84 °FScattered clouds.7 mph70%30.01 "HgN/A
8:00 AM81 °FScattered clouds.No wind84%30.01 "HgN/A
7:00 AM75 °FScattered clouds.No wind94%29.98 "HgN/A
6:00 AM75 °FPassing clouds.No wind94%29.98 "HgN/A
5:00 AM75 °FPassing clouds.No wind94%29.98 "HgN/A
4:00 AM77 °FPassing clouds.No wind89%29.98 "HgN/A
3:00 AM79 °FPassing clouds.No wind89%29.98 "HgN/A
2:00 AM79 °FPassing clouds.3 mph84%29.98 "HgN/A
1:00 AM79 °FPassing clouds.3 mph89%30.01 "HgN/A
Weather by CustomWeather, © 2014

See weather overviewHow to use our weather pages